This demonstration page uses our WeatherBlox Daily Observations layout. Learn more.

Left ArrowRight Arrow

38.80484, -77.04692

Hourly Observations for April 7, 2016

Temp ( °F °C ) Dew Point ( °F °C ) Humidity (%) Winds ( mph kmh ) Pressure ( in mb ) Visibility ( mi km ) Precip ( " mm )
12:52 am 00:52 Cloudy 54 12.2 41 5 62 62 S 18 30 29.88 1012 10 16 0.00 0.00
1:52 am 01:52 Cloudy 54 12.2 44 6.7 69 69 S 15 24 29.84 1011 10 16 0.00 0.00
2:52 am 02:52 Clear 53 11.7 44 6.7 72 72 S 12 19 29.81 1010 10 16 0.00 0.00
3:52 am 03:52 Cloudy 54 12.2 46 7.8 75 75 S 10 17 29.77 1008 10 16 0.00 0.00
4:52 am 04:52 Cloudy 55 12.8 47 8.3 74 74 S 10 17 29.74 1007 10 16 0.00 0.00
5:52 am 05:52 Cloudy 55 12.8 48 8.9 77 77 S 14 22 29.70 1006 10 16 0.00 0.00
6:31 am 06:31 Cloudy 56 13.3 48 8.9 75 75 SSE 10 17 29.65 1004 10 16 0.00 0.00
6:52 am 06:52 Cloudy with Light Rain 56 13.3 49 9.4 77 77 SSE 14 22 29.66 1004 10 16 0.00 0.03
7:52 am 07:52 Cloudy with Light Rain 55 12.8 51 10.6 87 87 S 12 19 29.62 1003 6 10 0.03 0.76
8:52 am 08:52 Cloudy with Light Rain 55 12.8 52 11.1 90 90 S 5 7 29.56 1001 5 8 0.03 0.76
9:09 am 09:09 Cloudy with Rain 55 12.8 52 11.1 90 90 SSE 3 6 29.53 1000 3 4 0.03 0.76
9:35 am 09:35 Cloudy with Rain 55 12.8 53 11.7 93 93 Calm 29.50 999 3 5 0.14 3.56
9:52 am 09:52 Cloudy with Heavy Rain 55 12.8 53 11.7 93 93 NE 3 6 29.48 998 2 3 0.20 5.08
9:56 am 09:56 Cloudy with Heavy Rain 55 13 54 12 94 94 NE 5 7 29.47 998 2 3 0.00 0.00
10:00 am 10:00 Cloudy with Heavy Rain 55 13 54 12 94 94 VRB 3 6 29.47 998 3 5 0.00 0.00
10:06 am 10:06 Cloudy with Rain 55 12.8 53 11.7 93 93 E 6 9 29.44 997 4 6 0.06 1.52
10:13 am 10:13 Cloudy with Rain 55 12.8 53 11.7 93 93 SSW 16 26 29.47 998 4 6 0.08 2.03
10:14 am 10:14 Cloudy with Rain 55 13 54 12 94 94 SW 25 41 29.47 998 1 1 0.00 0.00
10:17 am 10:17 Cloudy with Heavy Rain 53 11.7 51 10.6 93 93 SW 29 46 29.47 998 1 2 0.16 4.06
10:21 am 10:21 Cloudy with Heavy Rain 53 11.7 49 9.4 86 86 W 23 37 29.47 998 2 3 0.22 5.59
10:26 am 10:26 Cloudy with Rain 54 12 48 9 82 82 W 16 26 29.47 998 3 5 0.00 0.00
10:28 am 10:28 Cloudy with Rain 54 12 48 9 82 82 WNW 12 19 29.47 998 3 5 0.00 0.00
10:35 am 10:35 Cloudy with Rain 53 11.7 49 9.4 86 86 WNW 9 15 29.47 998 4 6 0.27 6.86
10:52 am 10:52 Cloudy with Light Rain 53 11.7 50 10 89 89 WSW 10 17 29.50 999 10 16 0.30 7.62
11:31 am 11:31 Cloudy 56 13.3 51 10.6 84 84 WSW 16 26 29.50 999 10 16 0.00 0.03
11:52 am 11:52 Cloudy 56 13.3 51 10.6 84 84 WSW 15 24 29.53 1000 10 16 0.00 0.03
12:10 pm 12:10 Cloudy with Light Rain 54 12 46 8 77 77 W 10 17 29.53 1000 10 16 0.00 0.00
12:29 pm 12:29 Cloudy 55 12.8 46 7.8 72 72 W 13 20 29.50 999 10 16 0.01 0.25
12:52 pm 12:52 Cloudy 59 15 48 8.9 67 67 VRB 7 11 29.50 999 10 16 0.01 0.25
1:52 pm 13:52 Cloudy 60 15.6 45 7.2 58 58 SW 14 22 29.49 999 10 16 0.00 0.00
2:52 pm 14:52 Mostly Cloudy 61 16.1 44 6.7 54 54 SSW 17 28 29.46 998 10 16 0.00 0.00
3:52 pm 15:52 Mostly Cloudy 64 17.8 39 3.9 40 40 SW 16 26 29.44 997 10 16 0.00 0.00
4:34 pm 16:34 Mostly Cloudy 63 17 39 4 42 42 SSW 12 19 29.44 997 10 16 0.00 0.00
4:52 pm 16:52 Mostly Cloudy with Light Rain 58 14.4 40 4.4 51 51 W 20 31 29.45 997 10 16 0.00 0.03
4:59 pm 16:59 Mostly Cloudy with Light Rain 55 12.8 42 5.6 62 62 WNW 14 22 29.47 998 10 16 0.00 0.03
5:12 pm 17:12 Cloudy with Rain 54 12 46 8 77 77 WSW 23 37 29.50 999 7 11 0.00 0.00
5:19 pm 17:19 Cloudy with Heavy Rain 52 11.1 46 7.8 80 80 WSW 18 30 29.53 1000 3 4 0.03 0.76
5:28 pm 17:28 Cloudy with Rain 52 11 46 8 82 82 W 16 26 29.53 1000 5 8 0.00 0.00
5:52 pm 17:52 Mostly Cloudy 54 12.2 46 7.8 75 75 W 6 9 29.49 999 10 16 0.13 3.30
6:52 pm 18:52 Mostly Cloudy 53 11.7 46 7.8 77 77 SSW 7 11 29.50 999 10 16 0.00 0.00
7:00 pm 19:00 Mostly Cloudy 54 12 46 8 77 77 SW 7 11 29.50 999 10 16 0.00 0.00
7:52 pm 19:52 Mostly Cloudy 52 11.1 48 8.9 86 86 SSW 7 11 29.52 1000 10 16 0.00 0.03
8:00 pm 20:00 Mostly Cloudy 52 11 48 9 88 88 SSW 8 13 29.53 1000 10 16 0.00 0.00
8:52 pm 20:52 Mostly Cloudy 53 11.7 45 7.2 74 74 SW 12 19 29.55 1001 10 16 0.00 0.00
9:52 pm 21:52 Partly Cloudy 52 11.1 43 6.1 72 72 WSW 9 15 29.60 1003 10 16 0.00 0.00
10:52 pm 22:52 Partly Cloudy 51 10.6 38 3.3 61 61 WNW 10 17 29.61 1003 10 16 0.00 0.00
11:52 pm 23:52 Mostly Clear 50 10 33 0.6 52 52 WNW 12 19 29.62 1003 10 16 0.00 0.00

Powered by AerisWeather